TimeEST,TemperatureF,Dew PointF,Humidity,Sea Level PressureIn,VisibilityMPH,Wind Direction,Wind SpeedMPH,Gust SpeedMPH,PrecipitationIn,Events,Conditions,WindDirDegrees,DateUTC
12:35 AM,42.8,42.8,100,30.09,3.0,Calm,Calm,-,N/A,,Clear,0,2012-02-18 05:35:00
12:55 AM,44.6,44.6,100,30.08,7.0,Calm,Calm,-,N/A,,Clear,0,2012-02-18 05:55:00
1:15 AM,44.6,44.6,100,30.09,7.0,Calm,Calm,-,N/A,,Clear,0,2012-02-18 06:15:00
1:35 AM,42.8,42.8,100,30.10,10.0,Calm,Calm,-,N/A,,Clear,0,2012-02-18 06:35:00
1:55 AM,44.6,42.8,93,30.10,7.0,Calm,Calm,-,N/A,,Clear,0,2012-02-18 06:55:00
2:15 AM,42.8,42.8,100,30.09,7.0,Calm,Calm,-,N/A,,Clear,0,2012-02-18 07:15:00
2:35 AM,42.8,42.8,100,30.09,7.0,Calm,Calm,-,N/A,,Clear,0,2012-02-18 07:35:00
2:55 AM,42.8,41.0,93,30.07,5.0,Calm,Calm,-,N/A,,Clear,0,2012-02-18 07:55:00
3:15 AM,42.8,42.8,100,30.08,5.0,Calm,Calm,-,N/A,,Scattered Clouds,0,2012-02-18 08:15:00
3:35 AM,41.0,41.0,100,30.07,4.0,Calm,Calm,-,N/A,,Scattered Clouds,0,2012-02-18 08:35:00
3:55 AM,42.8,42.8,100,30.06,5.0,Calm,Calm,-,N/A,,Clear,0,2012-02-18 08:55:00
4:15 AM,41.0,41.0,100,30.06,3.0,Calm,Calm,-,N/A,,Clear,0,2012-02-18 09:15:00
4:35 AM,41.0,41.0,100,30.07,3.0,Calm,Calm,-,N/A,,Clear,0,2012-02-18 09:35:00
4:55 AM,41.0,41.0,100,30.06,4.0,Calm,Calm,-,N/A,,Clear,0,2012-02-18 09:55:00
5:15 AM,41.0,41.0,100,30.05,5.0,Calm,Calm,-,N/A,,Clear,0,2012-02-18 10:15:00
5:35 AM,42.8,42.8,100,30.04,4.0,Calm,Calm,-,N/A,,Clear,0,2012-02-18 10:35:00
5:55 AM,42.8,42.8,100,30.04,5.0,Calm,Calm,-,N/A,,Clear,0,2012-02-18 10:55:00
6:15 AM,42.8,42.8,100,30.06,7.0,Calm,Calm,-,N/A,,Clear,0,2012-02-18 11:15:00
6:35 AM,42.8,42.8,100,30.07,7.0,North,3.5,-,N/A,,Clear,10,2012-02-18 11:35:00
6:55 AM,42.8,42.8,100,30.09,5.0,Calm,Calm,-,N/A,,Clear,0,2012-02-18 11:55:00
7:15 AM,42.8,42.8,100,30.08,5.0,East,3.5,-,N/A,,Clear,100,2012-02-18 12:15:00
7:35 AM,44.6,44.6,100,30.08,5.0,Calm,Calm,-,N/A,,Clear,0,2012-02-18 12:35:00
7:55 AM,46.4,46.4,100,30.09,5.0,Calm,Calm,-,N/A,,Clear,0,2012-02-18 12:55:00
8:15 AM,46.4,46.4,100,30.10,7.0,NNE,3.5,-,N/A,,Mostly Cloudy,30,2012-02-18 13:15:00
8:35 AM,50.0,48.2,94,30.10,7.0,Calm,Calm,-,N/A,,Scattered Clouds,0,2012-02-18 13:35:00
8:55 AM,50.0,50.0,100,30.11,10.0,ENE,3.5,-,N/A,,Scattered Clouds,70,2012-02-18 13:55:00
9:15 AM,51.8,50.0,94,30.10,10.0,ESE,3.5,-,N/A,,Scattered Clouds,120,2012-02-18 14:15:00
9:35 AM,51.8,50.0,94,30.11,10.0,ENE,4.6,-,N/A,,Scattered Clouds,60,2012-02-18 14:35:00
9:55 AM,53.6,50.0,88,30.09,10.0,SE,4.6,-,N/A,,Scattered Clouds,130,2012-02-18 14:55:00
10:15 AM,53.6,50.0,88,30.09,10.0,ESE,4.6,-,N/A,,Scattered Clouds,110,2012-02-18 15:15:00
10:35 AM,53.6,50.0,88,30.08,10.0,ESE,5.8,-,N/A,,Clear,110,2012-02-18 15:35:00
10:55 AM,55.4,50.0,82,30.06,10.0,East,6.9,-,N/A,,Clear,100,2012-02-18 15:55:00
11:15 AM,55.4,50.0,82,30.05,10.0,East,6.9,-,N/A,,Clear,90,2012-02-18 16:15:00
11:35 AM,57.2,50.0,77,30.04,10.0,ENE,5.8,-,N/A,,Clear,60,2012-02-18 16:35:00
11:55 AM,59.0,50.0,72,30.04,10.0,East,5.8,-,N/A,,Clear,80,2012-02-18 16:55:00
12:15 PM,60.8,50.0,68,30.04,10.0,East,3.5,-,N/A,,Clear,90,2012-02-18 17:15:00
12:35 PM,60.8,50.0,68,30.04,10.0,East,5.8,-,N/A,,Clear,90,2012-02-18 17:35:00
12:55 PM,62.6,50.0,63,30.03,10.0,East,4.6,-,N/A,,Clear,80,2012-02-18 17:55:00
1:15 PM,62.6,50.0,63,30.02,10.0,ESE,6.9,-,N/A,,Clear,110,2012-02-18 18:15:00
1:35 PM,62.6,50.0,63,30.01,10.0,East,8.1,-,N/A,,Mostly Cloudy,80,2012-02-18 18:35:00
1:55 PM,62.6,50.0,63,30.01,10.0,SE,4.6,-,N/A,,Overcast,130,2012-02-18 18:55:00
2:15 PM,62.6,50.0,63,30.00,10.0,NE,3.5,-,N/A,,Overcast,50,2012-02-18 19:15:00
2:35 PM,62.6,48.2,59,30.00,10.0,ESE,4.6,-,N/A,,Overcast,110,2012-02-18 19:35:00
2:55 PM,62.6,50.0,63,29.98,10.0,ENE,6.9,-,N/A,,Overcast,70,2012-02-18 19:55:00
3:15 PM,62.6,50.0,63,29.96,10.0,East,8.1,-,N/A,,Mostly Cloudy,100,2012-02-18 20:15:00
3:35 PM,62.6,50.0,63,29.94,10.0,ENE,10.4,-,N/A,,Mostly Cloudy,70,2012-02-18 20:35:00
4:15 PM,59.0,51.8,77,29.93,10.0,NE,6.9,-,N/A,Rain,Light Rain,50,2012-02-18 21:15:00
4:35 PM,59.0,51.8,77,29.94,10.0,NE,6.9,-,N/A,Rain,Light Rain,40,2012-02-18 21:35:00
4:55 PM,57.2,53.6,88,29.95,7.0,NE,5.8,-,N/A,Rain,Light Rain,50,2012-02-18 21:55:00
5:15 PM,55.4,53.6,94,29.94,7.0,NE,6.9,-,N/A,Rain,Light Rain,40,2012-02-18 22:15:00
5:35 PM,55.4,53.6,94,29.95,5.0,NNE,8.1,-,N/A,Rain,Rain,30,2012-02-18 22:35:00
6:15 PM,53.6,53.6,100,29.97,4.0,NE,4.6,-,N/A,Rain,Rain,40,2012-02-18 23:15:00
6:35 PM,53.6,53.6,100,29.97,5.0,ENE,6.9,-,N/A,Rain,Rain,60,2012-02-18 23:35:00
6:55 PM,53.6,53.6,100,29.96,5.0,NE,8.1,-,N/A,Rain,Rain,50,2012-02-18 23:55:00
7:15 PM,53.6,53.6,100,29.95,7.0,ENE,8.1,-,N/A,Rain,Light Rain,60,2012-02-19 00:15:00
7:35 PM,53.6,51.8,94,29.93,5.0,ENE,9.2,-,N/A,Rain,Light Rain,60,2012-02-19 00:35:00
8:15 PM,53.6,51.8,94,29.94,4.0,NE,8.1,-,N/A,Rain,Rain,50,2012-02-19 01:15:00
8:35 PM,51.8,51.8,100,29.94,4.0,NE,10.4,-,N/A,Rain,Heavy Rain,40,2012-02-19 01:35:00
8:55 PM,51.8,51.8,100,29.94,5.0,NNE,10.4,-,N/A,Rain,Heavy Rain,30,2012-02-19 01:55:00
9:15 PM,51.8,51.8,100,29.94,4.0,NE,12.7,17.3,N/A,Rain,Heavy Rain,50,2012-02-19 02:15:00
9:35 PM,51.8,51.8,100,29.94,4.0,NE,13.8,19.6,N/A,Rain,Heavy Rain,50,2012-02-19 02:35:00
9:55 PM,51.8,50.0,94,29.94,5.0,NNE,13.8,20.7,N/A,Rain,Heavy Rain,30,2012-02-19 02:55:00
10:15 PM,51.8,50.0,94,29.94,4.0,NE,11.5,19.6,N/A,Rain,Heavy Rain,40,2012-02-19 03:15:00
10:35 PM,50.0,50.0,100,29.92,5.0,ENE,10.4,18.4,N/A,Rain,Heavy Rain,60,2012-02-19 03:35:00
10:55 PM,50.0,50.0,100,29.91,4.0,ENE,10.4,16.1,N/A,Rain,Heavy Rain,60,2012-02-19 03:55:00
11:15 PM,50.0,50.0,100,29.91,7.0,NE,8.1,-,N/A,Rain,Rain,50,2012-02-19 04:15:00
11:35 PM,50.0,50.0,100,29.89,5.0,ENE,8.1,-,N/A,Rain,Rain,70,2012-02-19 04:35:00
11:55 PM,50.0,50.0,100,29.88,5.0,East,11.5,-,N/A,Rain,Rain,90,2012-02-19 04:55:00